TimeCST,TemperatureF,Dew PointF,Humidity,Sea Level PressureIn,VisibilityMPH,Wind Direction,Wind SpeedMPH,Gust SpeedMPH,PrecipitationIn,Events,Conditions,WindDirDegrees,DateUTC
12:07 AM,60.8,60.8,100,29.97,2.0,South,4.6,-,N/A,,Overcast,170,2012-12-10 06:07:00
12:15 AM,60.8,60.8,100,29.97,6.0,South,5.8,-,N/A,,Mostly Cloudy,170,2012-12-10 06:15:00
12:32 AM,60.8,60.8,100,29.97,2.0,South,5.8,-,N/A,,Overcast,170,2012-12-10 06:32:00
12:39 AM,60.8,60.8,100,29.97,1.5,South,4.6,-,N/A,,Overcast,180,2012-12-10 06:39:00
12:53 AM,60.1,60.1,100,29.97,1.5,South,5.8,-,N/A,,Overcast,180,2012-12-10 06:53:00
1:53 AM,60.1,60.1,100,29.95,0.8,South,6.9,-,N/A,,Mist,180,2012-12-10 07:53:00
2:11 AM,60.8,60.8,100,29.96,1.0,SSW,8.1,-,N/A,,Mist,200,2012-12-10 08:11:00
2:31 AM,60.8,60.8,100,29.96,2.0,SSE,3.5,-,N/A,,Overcast,160,2012-12-10 08:31:00
2:41 AM,60.8,60.8,100,29.96,1.2,South,5.8,-,N/A,,Overcast,170,2012-12-10 08:41:00
2:53 AM,60.1,60.1,100,29.96,0.5,South,4.6,-,N/A,Fog,Fog,170,2012-12-10 08:53:00
3:32 AM,60.8,60.8,100,29.95,1.2,South,4.6,-,N/A,,Overcast,170,2012-12-10 09:32:00
3:41 AM,60.8,60.8,100,29.94,3.0,South,4.6,-,N/A,,Overcast,170,2012-12-10 09:41:00
3:53 AM,61.0,61.0,100,29.94,9.0,South,5.8,-,N/A,,Overcast,180,2012-12-10 09:53:00
4:53 AM,63.0,62.1,97,29.93,10.0,South,5.8,-,N/A,,Overcast,170,2012-12-10 10:53:00
5:53 AM,64.0,63.0,96,29.90,8.0,SSE,6.9,-,N/A,,Overcast,160,2012-12-10 11:53:00
6:53 AM,64.0,64.0,100,29.90,2.0,South,8.1,-,N/A,,Overcast,170,2012-12-10 12:53:00
7:06 AM,64.4,64.4,100,29.90,1.8,South,9.2,-,N/A,,Overcast,170,2012-12-10 13:06:00
7:21 AM,64.4,64.4,100,29.90,3.0,South,8.1,-,N/A,,Overcast,180,2012-12-10 13:21:00
7:53 AM,66.0,64.9,96,29.89,10.0,South,9.2,-,N/A,,Overcast,180,2012-12-10 13:53:00
8:30 AM,66.2,64.4,94,29.90,10.0,South,9.2,-,N/A,,Overcast,170,2012-12-10 14:30:00
8:53 AM,69.1,64.9,87,29.90,10.0,South,12.7,-,N/A,,Overcast,180,2012-12-10 14:53:00
9:07 AM,69.8,64.4,83,29.91,10.0,South,11.5,-,N/A,,Overcast,180,2012-12-10 15:07:00
9:51 AM,71.6,64.4,78,29.90,10.0,South,12.7,-,N/A,,Mostly Cloudy,190,2012-12-10 15:51:00
9:53 AM,72.0,64.9,78,29.90,10.0,South,11.5,-,N/A,,Mostly Cloudy,190,2012-12-10 15:53:00
10:02 AM,71.6,64.4,78,29.90,10.0,South,12.7,-,N/A,,Mostly Cloudy,190,2012-12-10 16:02:00
10:53 AM,73.9,64.0,71,29.88,10.0,SSW,10.4,-,N/A,,Mostly Cloudy,200,2012-12-10 16:53:00
11:46 AM,77.0,64.4,65,29.86,10.0,South,16.1,19.6,N/A,,Mostly Cloudy,190,2012-12-10 17:46:00
11:53 AM,78.1,64.0,62,29.85,10.0,South,16.1,24.2,N/A,,Mostly Cloudy,190,2012-12-10 17:53:00
12:53 PM,79.0,63.0,58,29.82,10.0,SSW,16.1,-,N/A,,Overcast,210,2012-12-10 18:53:00
1:53 PM,80.1,64.0,58,29.78,10.0,SSW,15.0,28.8,N/A,,Clear,210,2012-12-10 19:53:00
2:53 PM,78.1,64.9,64,29.77,10.0,SSW,17.3,24.2,N/A,,Mostly Cloudy,200,2012-12-10 20:53:00
3:53 PM,75.0,64.9,71,29.77,10.0,SW,9.2,-,N/A,,Mostly Cloudy,220,2012-12-10 21:53:00
4:53 PM,73.0,64.0,73,29.79,10.0,SW,12.7,-,0.00,,Clear,230,2012-12-10 22:53:00
5:53 PM,71.1,64.0,78,29.79,10.0,SSW,8.1,-,N/A,,Clear,210,2012-12-10 23:53:00
6:53 PM,66.9,64.0,90,29.81,10.0,SSW,5.8,-,N/A,,Clear,200,2012-12-11 00:53:00
7:53 PM,68.0,64.9,90,29.83,10.0,SSW,8.1,-,N/A,,Clear,200,2012-12-11 01:53:00
8:53 PM,66.9,64.9,93,29.84,10.0,SSW,4.6,-,N/A,,Clear,200,2012-12-11 02:53:00
9:53 PM,66.9,64.0,90,29.85,10.0,WNW,4.6,-,N/A,,Mostly Cloudy,300,2012-12-11 03:53:00
10:24 PM,68.0,62.6,83,29.85,10.0,WNW,5.8,-,N/A,,Scattered Clouds,290,2012-12-11 04:24:00
10:53 PM,66.0,63.0,90,29.85,10.0,WNW,3.5,-,N/A,,Clear,300,2012-12-11 04:53:00
11:15 PM,66.2,62.6,88,29.85,10.0,WNW,3.5,-,N/A,,Mostly Cloudy,290,2012-12-11 05:15:00
11:39 PM,66.2,62.6,88,29.85,10.0,South,3.5,-,N/A,,Scattered Clouds,180,2012-12-11 05:39:00
11:53 PM,64.9,62.1,90,29.85,10.0,SW,3.5,-,N/A,,Mostly Cloudy,220,2012-12-11 05:53:00